Regional Weather Roundup
Issued by NWS

Home | Current Version | Previous Version | Graphics & Text | Print | Product List | Glossary On
Versions: 1 2 3 4 5 6 7 8 9 10 11 12 13 14 15 16 17 18 19 20 21 22 23 24 25 26 27 28 29 30 31 32 33 34 35 36 37 38 39 40 41 42 43 44 45 46 47 48 49 50
000
ASUS44 KMEG 220610
RWRTN
TENNESSEE HOURLY STATE WEATHER ROUNDUP
NATIONAL WEATHER SERVICE MEMPHIS TN
100 AM CDT MON MAY 22 2017

TNZ002-004-019-021-049-052-054-088>092-220700-
WEST TENNESSEE

CITY           SKY/WX    TMP DP  RH WIND       PRES   REMARKS
MEMPHIS INTL   MOCLDY    64  53  67 N7        30.11S
NWS MEMPHIS      N/A     60 N/A N/A MISG        N/A
JACKSON        CLOUDY    63  57  81 NW6       30.11R
DYERSBURG      CLOUDY    64  50  60 N5        30.13R
SOMERVILLE     CLEAR     61  55  82 CALM      30.10S
COVINGTON      CLEAR     61  57  88 CALM      30.11S
UNION CITY       N/A     61  52  72 N5        30.12R
BOLIVAR        CLEAR     63  55  77 VRB3      30.09S
PARIS          CLOUDY    63  54  72 N7        30.10S
HUNTINGDON     CLEAR     63  55  77 VRB6      30.10R
SELMER         CLEAR     61  55  82 NW3       30.08S
SAVANNAH       CLEAR     59  59 100 CALM      30.07F
$$

TNZ008-025-027-028-033-062-065-066-220700-
NORTH MIDDLE TENNESSEE

CITY           SKY/WX    TMP DP  RH WIND       PRES   REMARKS
NASHVILLE      CLOUDY    68  55  63 N6        30.09R
PORTLAND       CLEAR     64  55  72 N3        30.09R
CLARKSVILLE    PTCLDY    62  54  74 N9        30.10R
SMYRNA         CLOUDY    66  59  78 N5        30.10R
COOKEVILLE     CLOUDY    68  66  94 CALM      30.08S
GALLATIN       CLEAR     63  57  82 CALM      30.12R
CROSSVILLE     CLOUDY    63  61  93 CALM      30.12F
$$

TNZ061-075-076-078-094-096-097-220700-
SOUTH MIDDLE TENNESSEE

CITY           SKY/WX    TMP DP  RH WIND       PRES   REMARKS
FAYETTEVILLE   MOCLDY    66  66 100 CALM      30.08S FOG
TULLAHOMA      PTCLDY    66  64  94 CALM      30.10S
WINCHESTER     CLOUDY    68  66  94 CALM      30.09S
MCMINNVILLE    MOCLDY    68  68 100 N15G37    30.09F
COLUMBIA       CLEAR     64  57  77 CALM      30.07S
SHELBYVILLE    PTCLDY    66  64  94 NW5       30.09S
$$

TNZ017-018-042-046-047-220700-
NORTHEAST TENNESSEE

CITY           SKY/WX    TMP DP  RH WIND       PRES   REMARKS
TRI CITIES     CLOUDY    61  60  97 CALM      30.10S FOG
ELIZABETHTON   DRIZZLE   63  61  94 CALM      30.09S
$$

TNZ012-013-036-069-073-074-220700-
CENTRAL EAST TENNESSEE

CITY           SKY/WX    TMP DP  RH WIND       PRES   REMARKS
KNOXVILLE      PTCLDY    69  65  86 CALM      30.06S
OAK RIDGE      CLOUDY    68  65  90 CALM      30.07F
GATLINBURG     CLOUDY    64  63  94 CALM      30.06F
MORRISTOWN     CLOUDY    64  64 100 CALM      30.07F
JACKSBORO      MOCLDY    66  64  94 E3        30.10F
$$

TNZ083-085-099-220700-
SOUTHEAST TENNESSEE

CITY           SKY/WX    TMP DP  RH WIND       PRES   REMARKS
CHATTANOOGA    CLOUDY    71  68  90 S6        30.06F
$$

SKY/WX REPORTED AS FAIR MEANS FEW OR NO CLOUDS BELOW
12 THOUSAND FEET.





USA.gov is the U.S. government's official web portal to all federal, state and local government web resources and services.